Showing default

LES 1, 1002

Orbit data source: Space-Track

LES 1, 1002 is a payload satellite owned by USAF SSD (US) in LEO that was launched on Thu, 11 Feb 1965 UTC via a TITAN IIIA launch vehicle from the Air Force Eastern Test Range (AFETR). Payload-class satellites include a variety of spacecraft equipped with specific instruments for various scientific and technological missions. These include communications satellites like Starlink; space stations such as the ISS; scientific satellites like the Hubble; Earth observation satellites from companies like Planet Labs, Umbra, and HawkEye 360; GPS; miniature CubeSats for education and research; and military/defense satellites.

Loading next visibility...
Identifier
1002, 1965-008C
Orbit
LEO
Country
Flag of USUS
Related business
Manufacturer
MIT-LL
Mission
Spacecraft
Bus & Motor
LES, STAR 13A
Mass
158 kg wet, 31 kg dry
Launch date (UTC)
1965-02-11 (61 years ago)
Launch vehicle
TITAN IIIA
Launch site
Air Force Eastern Test Range (AFETR)
Object type
Payload
Rocket body
Debris
Shape & HBR
Unknown
Radar Cross Section
Medium (>0.1 m² and <1 m²)

Expand to show TLE details & history
Last TLE update: 18 hours ago

TLE from 18 hours ago
0 LES 1
1  1002U 65008C   25289.03773669  .00000007  00000-0 -10742-3 0  9994
2  1002  32.1429 263.0954 0015512 111.1107 249.1050  9.88354747192032
Epoch: 2025-10-16T00:54Z
TLE epoch observation values (Epoch: 2025-10-16T00:54:20.450Z)
Latitude
0.00003°
Longitude
-135.29296°
Altitude
2,797.83 km
Speed
6.591 km/s
True Right ascension
17h 32m 22s
True Declination
0° 00' 00"
Sunlit
Object was in daylight at epoch
Visualization orbit readout
Latitude
Unknown
Longitude
Unknown
Altitude
Unknown
Speed
Unknown
Apparent Right ascension
Unknown
Apparent Declination
Unknown
Sunlit
N/A
Visualization observer readout
Local Sidereal Time
13:25:12
Azimuth
Unknown
Elevation
Unknown
Doppler factor
Unknown
Orbital elements
Apogee altitude
2,810.777 km
Perigee altitude
2,782.314 km
Semi-major axis
9,174.683 km
Eccentricity
0.00155
Inclination
32.1429°
RAAN
263.0954°
Arg. of periapsis
111.1107°
True anomaly
248.93905°
Mean anomaly
249.105°
Eccentric anomaly
249.02201°
Mean motion
2.46977 °/min
Orbital period
145.76 mins
BSTAR
-0.00010742
Loading maneuver chart data...
Computing Atmospheric mass density...
Loading historical data...
Loading historical data...
Loading historical data...
Loading historical data...
Loading historical data...
Loading historical data...
Loading historical data...
Other satellites on launch #8 in the year 1965 (1965-02-11 UTC)

Documentation

Showing up to 5 results
|